This is the latest recevied weather packets stored in our database for station/object KC9DNQ-3. If no packets are shown the sender has not sent any weather packets the latest 10 day(s).
| Time | Temp. | Humidity | Pressure | Rain* | Wind** | Luminosity | Snow |
|---|---|---|---|---|---|---|---|
| 1778163309 | 11.11° C | 52% | 1014.7 hPa | 0 mm | - | 429 W/m² | - |
| 1778163010 | 10.56° C | 52% | 1014.7 hPa | 0 mm | - | 417 W/m² | - |
| 1778162709 | 10.56° C | 52% | 1014.8 hPa | 0 mm | - | 274 W/m² | - |
| 1778162409 | 10.56° C | 52% | 1014.8 hPa | 0 mm | - | 216 W/m² | - |
| 1778162110 | 10.56° C | 53% | 1014.7 hPa | 0 mm | - | 302 W/m² | - |
| 1778161810 | 10.56° C | 54% | 1014.7 hPa | 0 mm | - | 564 W/m² | - |
| 1778161509 | 10° C | 53% | 1014.8 hPa | 0 mm | - | 531 W/m² | - |
| 1778161209 | 10° C | 56% | 1015 hPa | 0 mm | - | 443 W/m² | - |
| 1778160910 | 9.44° C | 55% | 1015 hPa | 0 mm | - | 401 W/m² | - |
| 1778160610 | 9.44° C | 59% | 1015 hPa | 0 mm | - | 381 W/m² | - |
| 1778160310 | 8.89° C | 59% | 1015 hPa | 0 mm | - | 376 W/m² | - |
| 1778160009 | 8.33° C | 58% | 1015.1 hPa | 0 mm | - | 364 W/m² | - |
| 1778159710 | 8.33° C | 60% | 1015.2 hPa | 0 mm | - | 346 W/m² | - |
| 1778159409 | 7.78° C | 62% | 1015.1 hPa | 0 mm | - | 336 W/m² | - |
| 1778159109 | 7.22° C | 64% | 1015.1 hPa | 0 mm | - | 302 W/m² | - |
| 1778158811 | 6.67° C | 67% | 1015.1 hPa | 0 mm | - | 269 W/m² | - |
| 1778158510 | 6.67° C | 72% | 1015.1 hPa | 0 mm | - | 230 W/m² | - |
| 1778158209 | 6.11° C | 74% | 1015.1 hPa | 0 mm | - | 148 W/m² | - |
| 1778157909 | 5.56° C | 77% | 1015.1 hPa | 0 mm | - | 127 W/m² | - |
| 1778157610 | 5.56° C | 78% | 1014.7 hPa | 0 mm | - | 148 W/m² | - |
| 1778157310 | 5° C | 81% | 1014.7 hPa | 0 mm | - | 81 W/m² | - |
| 1778157010 | 5° C | 84% | 1014.7 hPa | 0 mm | - | 62 W/m² | - |
| 1778156710 | 4.44° C | 86% | 1014.7 hPa | 0 mm | - | 77 W/m² | - |
| 1778156409 | 3.89° C | 83% | 1014.7 hPa | 0 mm | - | 93 W/m² | - |
| 1778156109 | 3.33° C | 88% | 1014.7 hPa | 0 mm | - | 62 W/m² | - |
* Rain latest hour (hover to see other rain measurements)
** Current wind speed in m/s (hover to see current wind gust speed)